Wind_Speed
12 12 13 13 15 16 18 19 20 20 20 21 20 20 21 23 24 23 23 24 26 26 25 24 25 26 25 26 29 30 32 33 28 27 26 28 30 29 38 42 42 51 51 49 48 50 51
12 14 15 16 16 17 18 19 21 21 21 21 22 23 23 24 24 24 23 23 23 24 26 24 27 26 29 33 31 32 36 34 33 31 31 31 29 28 37 37 41 38 38 45 49 50 51
13 15 16 17 17 18 19 20 20 20 21 22 23 24 24 24 25 25 24 25 24 25 25 26 25 29 29 29 34 36 35 34 33 30 32 31 32 34 36 39 42 45 49 47 46 41 42
14 16 17 17 17 18 19 20 20 21 22 23 24 24 25 25 25 25 26 27 27 27 27 28 26 28 36 34 33 34 32 33 34 29 25 26 30 34 37 39 35 31 31 27 24 22 35
16 16 17 17 18 18 18 19 20 22 23 24 25 25 26 25 26 27 28 28 29 30 30 28 33 21 22 22 23 27 28 27 30 29 28 26 26 31 33 33 31 28 39 30 26 25 23
15 15 16 16 18 18 19 20 22 23 24 25 26 26 27 28 29 30 30 30 30 32 29 33 23 18 21 24 30 27 26 24 23 22 21 22 25 28 26 28 34 22 31 28 26 17 22
15 16 17 17 18 19 20 21 22 24 25 26 27 28 30 31 32 32 31 33 33 32 38 33 29 21 19 20 23 22 22 19 16 16 15 16 22 29 27 31 38 40 39 39 31 15 20
16 17 17 18 19 20 21 22 23 24 26 27 28 30 32 34 35 35 34 33 33 32 35 34 21 15 14 17 19 19 19 18 19 20 19 19 24 24 28 33 36 32 31 42 39 34 34
17 18 18 19 20 20 22 23 24 25 26 28 30 32 34 35 37 35 37 37 37 36 32 15 11 11 15 19 21 24 27 28 29 22 12 15 16 27 23 24 25 25 23 25 24 22 25
18 18 18 19 21 22 23 24 25 26 27 29 32 34 36 38 36 39 38 38 37 33 11 7 11 15 22 27 12 20 32 30 19 14 18 13 10 14 15 13 13 19 14 19 20 15 12
17 18 20 21 23 23 24 25 26 28 30 32 34 35 35 37 37 37 38 36 35 22 2 12 13 16 29 29 28 28 28 22 12 9 8 12 17 16 12 9 17 15 17 19 24 21 21
17 20 22 23 24 24 24 25 27 28 31 33 36 37 36 34 34 35 35 32 25 7 3 11 13 28 34 29 31 31 27 18 8 12 8 12 9 6 11 14 19 16 16 25 25 23 17
19 22 23 24 25 24 24 26 28 29 31 33 35 36 36 36 34 33 29 27 8 5 13 12 25 31 25 28 28 27 24 15 14 15 18 12 10 10 10 24 12 12 15 7 8 13 14
21 24 24 24 25 24 25 27 29 30 31 33 33 34 34 33 32 29 29 20 6 6 14 18 24 22 14 26 23 25 20 14 13 16 17 14 16 13 23 12 13 20 8 7 7 8 9
23 26 26 25 24 24 26 28 30 31 32 31 32 32 31 29 28 27 25 13 4 9 14 20 19 10 16 17 17 18 18 13 14 16 16 14 15 27 11 21 14 7 12 16 13 21 14
24 28 26 24 23 25 26 28 31 32 33 32 32 31 27 28 27 26 19 10 5 8 12 15 9 8 15 19 15 20 13 9 16 16 19 15 20 12 19 8 4 9 10 6 5 6 5
25 29 29 25 24 25 27 29 31 32 32 32 31 27 25 22 26 22 23 10 5 9 11 10 9 9 13 15 18 16 9 16 13 24 20 22 10 16 15 13 15 7 3 6 7 6 4
28 29 29 26 25 26 28 30 32 31 31 31 30 21 23 21 18 24 19 13 9 10 10 11 12 15 13 15 17 10 13 12 18 18 34 15 10 14 15 8 5 5 7 10 7 7 9
28 30 28 25 25 26 28 32 33 32 33 31 27 20 22 22 16 19 13 12 10 12 11 11 10 13 17 20 11 15 17 15 16 28 20 15 7 10 3 5 4 17 16 12 11 12 1
25 31 26 24 25 27 28 30 32 32 31 28 23 17 19 22 20 16 11 14 11 13 12 14 12 15 19 19 12 15 17 17 33 20 15 15 10 9 6 8 12 6 11 9 3 3 2
27 28 26 24 26 27 27 28 30 30 28 23 20 14 15 14 16 16 14 13 15 18 12 13 12 15 19 23 20 8 26 30 25 17 10 4 5 10 4 3 4 6 11 14 13 3 1
26 28 25 24 25 26 26 27 28 27 23 20 18 15 13 13 14 13 15 15 17 14 14 13 16 17 20 11 18 27 24 19 14 12 15 16 7 9 0 10 9 13 15 10 11 12 13
24 24 23 23 24 25 25 26 24 23 18 17 16 14 13 11 14 14 17 16 16 16 11 16 17 16 16 16 19 17 13 3 8 16 17 18 12 6 5 11 8 3 15 14 12 6 4
22 21 21 22 23 24 26 26 23 17 16 16 15 15 13 13 15 14 13 14 13 16 16 15 16 14 12 15 16 13 8 2 12 18 18 17 13 2 2 5 3 1 8 8 7 5 4
19 19 19 21 21 23 24 22 18 15 16 15 15 14 13 15 14 14 12 13 12 12 10 11 13 14 12 9 6 5 6 6 8 16 20 17 10 2 2 4 3 6 11 9 6 6 3
16 17 18 19 20 22 20 19 13 13 14 14 14 12 14 11 13 14 15 15 15 13 14 13 16 12 11 6 3 5 6 12 7 13 16 9 13 4 4 1 2 8 11 11 7 4 2
15 16 17 17 19 19 16 12 11 12 12 12 13 12 13 10 14 14 15 16 16 18 18 12 17 13 12 8 8 6 5 10 9 16 21 22 16 21 12 5 1 15 15 13 4 5 14
14 15 15 16 18 15 12 8 9 9 10 11 12 11 11 10 13 13 13 14 15 18 20 18 14 18 13 13 8 5 7 10 9 15 13 18 10 9 8 4 3 17 12 9 11 14 15
13 14 14 16 13 11 7 6 7 7 8 9 12 11 9 12 13 11 11 13 14 17 18 20 19 19 15 11 8 7 9 6 14 6 15 11 10 7 6 6 9 10 11 11 12 12 13
Wind_Direction
341 339 337 335 335 332 333 333 332 331 332 334 335 334 333 331 329 328 327 324 321 318 316 313 312 307 305 304 293 287 288 284 278 270 264 254 251 257 255 257 255 258 261 259 263 261 262
337 334 333 334 333 331 330 330 330 331 334 334 333 334 333 332 329 327 324 319 316 314 312 309 307 303 300 297 288 291 293 286 280 270 261 257 258 257 255 254 254 257 267 263 260 261 265
330 329 331 331 331 331 328 327 328 332 333 333 333 332 331 331 330 327 325 323 320 317 313 309 304 300 297 288 288 285 283 280 279 275 270 263 256 248 248 254 255 257 258 261 258 259 259
323 321 323 324 326 324 325 328 332 332 333 331 330 331 331 331 330 330 328 325 322 320 317 314 310 306 294 291 285 282 279 280 280 283 279 266 254 250 245 249 253 260 262 261 269 265 257
317 319 321 323 323 325 328 331 332 331 331 329 328 330 332 332 331 329 328 326 325 323 321 317 313 305 292 286 278 282 285 284 286 285 277 267 256 253 252 249 259 250 257 257 266 257 250
324 325 324 325 326 327 330 329 329 329 329 330 331 333 334 334 332 332 331 330 328 326 323 322 316 306 286 287 289 294 294 297 290 286 276 257 254 252 249 238 236 251 253 262 262 257 254
330 328 327 327 327 327 327 327 328 330 331 332 333 335 334 333 335 335 333 334 332 334 327 322 308 305 290 298 301 298 299 295 299 292 277 266 249 250 252 257 263 261 260 264 252 265 256
330 328 328 327 326 327 329 329 330 332 332 332 335 335 334 335 337 337 337 338 340 335 329 319 316 322 313 307 303 304 301 310 306 303 294 281 269 276 267 266 264 268 266 269 273 265 258
329 328 329 330 331 330 330 329 329 332 332 335 335 334 336 337 338 336 342 342 342 340 328 316 329 329 336 334 329 326 326 324 325 324 301 276 270 279 266 279 286 284 273 279 276 272 258
325 326 331 333 332 332 330 330 331 332 334 335 335 336 338 340 337 343 342 343 343 337 313 340 333 340 326 342 315 338 335 337 335 318 296 289 262 294 298 309 319 302 299 287 309 312 257
325 329 331 333 333 331 330 330 331 335 335 335 335 337 341 343 342 340 343 343 343 341 272 337 338 330 334 343 341 341 345 345 342 339 329 310 317 308 314 294 339 299 311 301 292 284 285
327 330 332 333 331 329 329 330 333 334 336 337 337 340 343 343 342 343 342 344 345 348 40 331 331 329 337 342 348 345 358 357 348 358 330 331 352 352 326 308 320 307 312 297 274 255 250
326 328 331 330 329 328 328 330 332 335 337 338 339 341 341 343 344 344 347 351 359 43 333 330 335 338 339 343 349 357 357 11 18 351 340 343 341 330 330 336 340 330 328 292 259 215 244
327 330 328 329 328 326 327 330 333 334 338 341 341 340 343 342 342 347 352 5 44 340 324 313 330 335 349 350 352 354 1 357 350 6 334 339 329 330 325 331 316 314 312 305 303 300 310
330 331 329 328 325 325 329 332 331 334 341 343 340 340 343 341 346 351 2 35 26 331 328 336 342 343 346 347 340 349 345 350 344 338 6 331 304 310 327 324 309 316 305 299 265 276 271
326 332 331 324 325 326 329 330 332 338 343 342 342 341 345 348 351 0 7 59 37 341 333 339 349 340 339 341 349 345 340 342 331 330 332 327 302 309 325 349 318 313 313 319 343 310 338
320 328 328 322 325 326 327 332 336 340 342 342 344 347 350 354 356 349 42 66 30 352 346 352 344 326 324 334 334 336 327 329 319 326 328 321 278 293 327 324 306 319 349 358 313 288 322
314 322 325 322 324 326 330 334 336 341 341 344 347 352 355 360 352 24 47 52 36 28 21 2 347 334 324 320 323 321 318 315 310 329 318 317 279 290 317 325 353 102 1 333 310 302 314
317 322 321 321 323 327 335 334 338 339 344 348 352 357 357 6 27 37 52 50 33 13 5 355 345 334 330 315 299 315 323 327 298 323 315 316 269 289 246 272 290 327 341 328 289 272 292
309 318 318 319 324 328 334 336 337 341 345 350 359 360 358 5 29 39 40 32 32 19 15 2 353 347 341 342 314 303 310 313 316 335 307 286 286 294 320 301 310 335 358 5 259 283 93
305 315 316 321 325 328 334 338 337 341 347 352 4 9 13 16 26 33 23 18 15 3 7 345 343 339 340 332 328 308 316 321 335 348 22 8 288 279 302 6 2 45 39 38 42 18 22
300 315 314 319 322 329 333 338 340 343 349 358 3 10 22 25 36 33 28 18 19 21 360 342 335 335 334 335 326 320 327 333 359 13 19 15 303 274 236 130 76 47 53 42 52 65 85
303 310 311 318 323 329 334 338 344 344 356 1 9 18 23 37 40 30 29 21 3 360 347 324 328 335 333 329 328 328 332 356 20 11 11 358 347 244 192 192 323 301 25 35 36 67 111
304 305 310 318 325 330 334 340 347 352 2 8 17 25 32 56 48 44 40 19 2 345 343 325 326 328 331 332 330 342 8 217 330 354 354 355 352 309 102 189 247 304 351 350 337 6 35
299 303 312 319 326 331 336 341 348 358 8 16 24 31 37 52 48 50 48 43 24 10 4 356 0 352 351 340 342 327 325 311 322 346 353 356 346 351 182 69 135 4 343 332 313 278 314
296 304 313 319 327 332 337 341 353 5 12 18 26 32 44 47 55 49 41 40 46 44 32 29 21 19 3 27 22 27 27 340 337 352 354 2 30 61 47 72 51 1 353 353 332 293 239
294 306 312 321 327 332 337 342 359 11 14 24 27 36 47 41 53 44 40 38 35 37 38 39 33 38 44 52 61 55 23 4 360 358 357 21 24 36 43 65 88 2 350 342 350 305 316
295 304 312 321 326 331 337 348 7 12 20 24 31 38 44 46 54 47 40 38 40 42 38 32 36 33 35 50 53 49 26 23 21 18 13 20 14 9 17 17 345 337 344 341 319 320 323
294 303 314 318 324 330 334 1 9 15 30 26 40 32 43 45 56 55 51 48 46 48 44 43 48 42 45 59 67 67 44 57 44 20 29 26 26 15 24 356 351 347 341 335 331 328 327
Height
3134 3132 3129 3127 3125 3123 3121 3118 3115 3111 3107 3104 3101 3098 3095 3092 3088 3084 3081 3078 3074 3072 3069 3066 3063 3059 3057 3056 3052 3048 3046 3044 3044 3042 3041 3040 3039 3040 3035 3033 3035 3024 3027 3028 3026 3027 3026
3133 3131 3128 3126 3123 3121 3119 3116 3113 3109 3105 3102 3099 3095 3092 3089 3085 3081 3078 3075 3072 3068 3065 3062 3059 3056 3054 3050 3045 3042 3039 3036 3035 3034 3034 3032 3032 3032 3025 3024 3023 3023 3018 3017 3018 3017 3017
3131 3130 3127 3124 3122 3119 3117 3114 3111 3107 3104 3101 3097 3093 3089 3085 3082 3078 3074 3070 3067 3064 3060 3057 3054 3050 3045 3043 3037 3034 3031 3028 3026 3026 3025 3025 3024 3021 3016 3015 3014 3011 3008 3009 3007 3009 3009
3129 3127 3125 3123 3120 3117 3114 3112 3109 3105 3102 3099 3095 3091 3087 3083 3079 3075 3070 3066 3062 3059 3055 3051 3047 3043 3037 3032 3029 3025 3025 3021 3019 3019 3018 3016 3015 3013 3009 3009 3006 3005 3001 2999 3000 3001 3002
3127 3124 3122 3120 3117 3115 3111 3109 3106 3103 3099 3096 3092 3088 3084 3080 3076 3072 3067 3062 3057 3052 3048 3043 3040 3036 3029 3025 3021 3018 3017 3017 3013 3012 3010 3009 3008 3006 3005 3003 3001 2998 2987 2993 2995 2993 2996
3125 3122 3120 3118 3115 3112 3109 3106 3103 3099 3096 3092 3089 3084 3080 3076 3071 3067 3062 3058 3053 3047 3042 3037 3030 3031 3024 3019 3013 3014 3010 3009 3007 3005 3004 3004 3001 2997 2997 2997 2982 2989 2987 2987 2988 2991 2987
3123 3121 3118 3116 3113 3110 3107 3103 3100 3096 3093 3090 3085 3080 3075 3071 3066 3061 3058 3051 3049 3042 3033 3030 3025 3020 3016 3014 3010 3007 3006 3005 3002 3000 2999 2998 2995 2988 2991 2989 2985 2984 2980 2978 2982 2983 2982
3122 3119 3116 3113 3110 3107 3104 3100 3097 3093 3090 3086 3080 3076 3070 3065 3060 3055 3051 3046 3041 3038 3028 3017 3014 3014 3011 3009 3006 3003 3001 3001 2999 2995 2994 2994 2989 2988 2984 2981 2978 2975 2972 2967 2971 2974 2975
3120 3117 3114 3111 3107 3104 3101 3098 3094 3090 3087 3081 3076 3071 3065 3060 3053 3049 3042 3036 3031 3025 3021 3015 3013 3012 3010 3008 3002 2997 2995 2993 2991 2990 2989 2987 2987 2978 2978 2972 2969 2968 2966 2964 2962 2963 2963
3118 3115 3112 3108 3105 3101 3098 3094 3091 3087 3083 3078 3073 3067 3061 3054 3051 3041 3036 3030 3025 3019 3015 3016 3012 3009 3007 3005 3003 2998 2992 2991 2988 2985 2982 2980 2977 2975 2972 2971 2967 2962 2960 2956 2955 2956 2954
3115 3112 3109 3105 3102 3098 3095 3092 3088 3083 3079 3074 3069 3063 3057 3048 3043 3037 3031 3025 3019 3014 3015 3017 3013 3009 3006 3006 3002 2999 2992 2988 2983 2982 2981 2979 2973 2971 2969 2967 2965 2960 2956 2955 2953 2952 2953
3112 3109 3106 3102 3099 3095 3092 3089 3085 3081 3075 3069 3063 3057 3050 3046 3038 3033 3026 3020 3015 3014 3014 3015 3012 3008 3005 3002 2998 2994 2991 2986 2983 2980 2979 2976 2972 2970 2969 2964 2961 2957 2954 2950 2945 2946 2942
3110 3106 3102 3099 3096 3092 3089 3085 3081 3077 3072 3065 3058 3052 3045 3038 3034 3028 3022 3017 3016 3013 3019 3016 3009 3007 3004 3001 2997 2994 2990 2986 2985 2981 2977 2974 2972 2969 2966 2961 2958 2957 2952 2942 2933 2931 2925
3107 3103 3099 3095 3092 3089 3085 3081 3077 3074 3068 3062 3054 3047 3040 3033 3028 3023 3019 3017 3016 3019 3018 3016 3012 3009 3006 3001 2998 2994 2991 2988 2984 2982 2978 2974 2969 2968 2966 2964 2960 2954 2953 2949 2938 2924 2929
3103 3100 3096 3092 3088 3085 3081 3077 3073 3068 3063 3058 3050 3043 3037 3031 3025 3020 3016 3014 3020 3020 3018 3013 3011 3008 3007 3004 2999 2995 2992 2989 2986 2983 2981 2975 2969 2964 2963 2960 2958 2953 2951 2948 2943 2934 2927
3099 3096 3092 3089 3084 3081 3078 3074 3069 3063 3057 3052 3045 3038 3033 3025 3020 3017 3015 3016 3018 3017 3016 3013 3011 3009 3006 3002 2999 2996 2991 2989 2985 2983 2980 2976 2967 2962 2959 2955 2954 2952 2950 2946 2942 2936 2931
3095 3093 3089 3084 3081 3077 3074 3069 3064 3058 3052 3046 3040 3033 3028 3022 3017 3016 3012 3016 3017 3014 3014 3013 3010 3007 3005 3001 2998 2995 2991 2988 2983 2979 2977 2974 2968 2962 2958 2955 2951 2951 2949 2948 2947 2943 2935
3092 3090 3085 3081 3077 3073 3068 3063 3059 3054 3048 3042 3035 3031 3025 3022 3020 3011 3012 3013 3016 3014 3012 3011 3007 3004 3002 2999 2995 2993 2990 2988 2982 2978 2971 2969 2964 2959 2956 2952 2950 2949 2949 2948 2947 2940 2939
3088 3085 3081 3077 3073 3069 3064 3058 3053 3048 3042 3037 3030 3026 3022 3020 3016 3013 3014 3012 3013 3012 3010 3008 3005 3003 3000 2996 2994 2989 2986 2985 2979 2977 2969 2966 2961 2956 2952 2952 2949 2947 2946 2946 2944 2941 2940
3083 3079 3076 3073 3069 3064 3060 3054 3048 3043 3038 3033 3028 3024 3019 3015 3013 3013 3013 3011 3012 3010 3008 3006 3003 3000 2995 2992 2991 2987 2983 2980 2975 2970 2967 2963 2960 2958 2956 2956 2953 2949 2946 2943 2941 2940 2940
3079 3075 3071 3068 3064 3060 3056 3052 3044 3039 3034 3031 3025 3022 3019 3017 3013 3011 3012 3010 3009 3006 3006 3003 3001 2998 2994 2990 2986 2984 2980 2974 2971 2967 2962 2960 2959 2957 2955 2954 2951 2949 2946 2944 2940 2940 2941
3073 3070 3067 3064 3061 3056 3052 3048 3042 3036 3032 3027 3024 3021 3016 3015 3013 3011 3010 3008 3006 3005 3003 3001 2998 2995 2992 2989 2985 2979 2976 2972 2969 2967 2963 2961 2959 2955 2953 2953 2952 2948 2948 2946 2945 2943 2944
3068 3065 3063 3059 3056 3051 3048 3045 3039 3034 3030 3026 3022 3018 3015 3015 3013 3011 3009 3006 3004 3002 3001 2997 2994 2991 2988 2985 2981 2978 2974 2972 2971 2967 2963 2960 2957 2955 2952 2951 2951 2951 2950 2950 2949 2947 2947
3062 3060 3058 3055 3051 3047 3043 3039 3036 3032 3028 3024 3020 3016 3014 3012 3011 3011 3009 3007 3004 3000 2998 2995 2991 2989 2987 2982 2978 2976 2973 2971 2969 2966 2963 2959 2955 2953 2952 2953 2950 2955 2953 2952 2951 2949 2947
3057 3056 3054 3051 3047 3043 3039 3036 3033 3029 3025 3022 3018 3016 3014 3010 3011 3010 3009 3007 3003 3000 2997 2994 2989 2985 2982 2980 2977 2976 2975 2972 2969 2966 2962 2958 2954 2951 2952 2953 2957 2955 2954 2952 2950 2950 2948
3053 3052 3050 3047 3043 3040 3036 3034 3031 3027 3023 3020 3017 3015 3012 3011 3011 3009 3007 3006 3004 3001 2997 2993 2988 2984 2981 2979 2977 2977 2977 2975 2970 2967 2964 2958 2954 2952 2952 2953 2954 2959 2954 2951 2950 2948 2947
3049 3048 3046 3043 3040 3037 3034 3031 3028 3025 3023 3020 3017 3014 3011 3011 3009 3008 3006 3004 3002 2999 2996 2993 2990 2986 2982 2980 2978 2979 2979 2977 2974 2971 2963 2956 2954 2954 2954 2957 2958 2957 2954 2951 2952 2954 2946
3045 3044 3042 3040 3037 3034 3031 3029 3027 3024 3021 3019 3016 3013 3013 3011 3010 3008 3007 3004 3002 2999 2996 2994 2990 2986 2982 2980 2980 2980 2980 2979 2977 2974 2970 2966 2963 2961 2959 2959 2961 2956 2954 2953 2951 2946 2943
3041 3040 3038 3036 3034 3031 3029 3027 3026 3024 3020 3019 3016 3014 3013 3012 3010 3010 3007 3005 3003 3000 2998 2994 2992 2988 2985 2983 2983 2982 2982 2981 2978 2976 2973 2972 2970 2967 2965 2964 2960 2956 2953 2950 2947 2944 2941